{"data":{"norad_id":67173,"epoch":"2026-09-19T02:36:00.759168Z","epoch_age_seconds":198478,"freshness":"STALE","line1":"1 67173U 25303L   26262.10834212  .00008985  00000+0  33531-3 0  9993","line2":"2 67173  43.0020 298.5992 0001099 276.3091  83.7635 15.27613018 42312","mean_motion":15.27613018,"eccentricity":0.0001099,"inclination_deg":43.002,"raan_deg":298.5992,"arg_perigee_deg":276.3091,"mean_anomaly_deg":83.7635,"bstar":0.00033531,"rev_number":4231,"period_min":94.264711221517,"perigee_km":482.19619656369,"apogee_km":483.70426353686,"semimajor_km":6861.0872300503,"source":"CELESTRAK","updated_at":"2026-09-21T09:00:36.112178Z"}}